,,,PA_Meas_PMT16A,,PR_Meas_QMR101_102,,RH_Meas_QMH101,,SR_Meas_QMS101,,TA_Meas_QMH101,,GenWind,,GenWind,
date,time,status,PA,status,PR,status,RH,status,SR,status,TA,status,DirAvg,status,SpdAvg,
2013-02-15, 00:00:04,VALID,1008.46,VALID,0,VALID,104,VALID,0.112112,VALID,24.842,VALID,129,VALID,0.400391,
2013-02-15, 00:01:04,VALID,1008.43,VALID,0,VALID,104,VALID,0.112112,VALID,24.842,VALID,128,VALID,0.3125,
2013-02-15, 00:02:04,VALID,1008.36,VALID,0,VALID,104,VALID,0.112112,VALID,24.8225,VALID,128,VALID,0.301172,
2013-02-15, 00:03:04,VALID,1008.36,VALID,0,VALID,104,VALID,0,VALID,24.8244,VALID,128,VALID,0.302734,
2013-02-15, 00:04:04,VALID,1008.32,VALID,0,VALID,104,VALID,0,VALID,24.8244,VALID,129,VALID,0.175391,
2013-02-15, 00:05:04,VALID,1008.32,VALID,0,VALID,104,VALID,0,VALID,24.8244,VALID,127,VALID,0,
2013-02-15, 00:06:04,VALID,1008.33,VALID,0,VALID,104,VALID,0,VALID,24.8049,VALID,127,VALID,0,
2013-02-15, 00:07:04,VALID,1008.32,VALID,0,VALID,104,VALID,0,VALID,24.7835,VALID,127,VALID,0.233203,
2013-02-15, 00:08:04,VALID,1008.3,VALID,0,VALID,104,VALID,0,VALID,24.7854,VALID,128,VALID,0.476172,
2013-02-15, 00:09:04,VALID,1008.34,VALID,0,VALID,104,VALID,0,VALID,24.7854,VALID,127,VALID,0.4125,
2013-02-15, 00:10:04,VALID,1008.32,VALID,0,VALID,104,VALID,0,VALID,24.7464,VALID,127,VALID,0.395312,
2013-02-15, 00:11:04,VALID,1008.32,VALID,0,VALID,104,VALID,0,VALID,24.7464,VALID,107,VALID,0.514844,
2013-02-15, 00:12:04,VALID,1008.29,VALID,0,VALID,104,VALID,0,VALID,24.7074,VALID,106,VALID,0.441797,
2013-02-15, 00:13:04,VALID,1008.29,VALID,0,VALID,104,VALID,0,VALID,24.6879,VALID,105,VALID,0.36875,
2013-02-15, 00:14:04,VALID,1008.25,VALID,0,VALID,104,VALID,0,VALID,24.6898,VALID,106,VALID,0.176953,
2013-02-15, 00:15:04,VALID,1008.22,VALID,0,VALID,104,VALID,0,VALID,24.6684,VALID,106,VALID,0.040625,
2013-02-15, 00:16:04,VALID,1008.19,VALID,0,VALID,104,VALID,0,VALID,24.6489,VALID,105,VALID,0,
2013-02-15, 00:17:04,VALID,1008.15,VALID,0,VALID,104,VALID,0,VALID,24.6489,VALID,106,VALID,0.00195313,
2013-02-15, 00:18:04,VALID,1008.15,VALID,0,VALID,104,VALID,0,VALID,24.6471,VALID,105,VALID,0.2125,
2013-02-15, 00:19:04,VALID,1008.1,VALID,0,VALID,104,VALID,0,VALID,24.6471,VALID,106,VALID,0.204688,
2013-02-15, 00:20:04,VALID,1008.1,VALID,0,VALID,104,VALID,0,VALID,24.6666,VALID,105,VALID,0.338672,
2013-02-15, 00:21:04,VALID,1008.06,VALID,0,VALID,104,VALID,0,VALID,24.6666,VALID,106,VALID,0.280859,
2013-02-15, 00:22:04,VALID,1008.02,VALID,0,VALID,104,VALID,0.112112,VALID,24.6666,VALID,105,VALID,0.348828,
2013-02-15, 00:23:04,VALID,1008.02,VALID,0,VALID,104,VALID,0.112112,VALID,24.6879,VALID,105,VALID,0.430078,
2013-02-15, 00:24:04,VALID,1007.97,VALID,0,VALID,104,VALID,0,VALID,24.6666,VALID,106,VALID,0.378125,
2013-02-15, 00:25:04,VALID,1007.98,VALID,0,VALID,104,VALID,0,VALID,24.6666,VALID,105,VALID,0.0953125,
2013-02-15, 00:26:04,VALID,1007.95,VALID,0,VALID,104,VALID,0,VALID,24.686,VALID,105,VALID,0,
2013-02-15, 00:27:04,VALID,1007.94,VALID,0,VALID,104,VALID,0,VALID,24.6879,VALID,105,VALID,0,
2013-02-15, 00:28:04,VALID,1007.94,VALID,0,VALID,104,VALID,0.112112,VALID,24.6666,VALID,106,VALID,0,
2013-02-15, 00:29:04,VALID,1007.93,VALID,0,VALID,104,VALID,0.112112,VALID,24.6471,VALID,105,VALID,0,
2013-02-15, 00:30:04,VALID,1007.93,VALID,0,VALID,104,VALID,0.112112,VALID,24.6081,VALID,105,VALID,0.308203,
2013-02-15, 00:31:04,VALID,1007.94,VALID,0,VALID,104,VALID,0,VALID,24.5886,VALID,106,VALID,0.384375,
2013-02-15, 00:32:04,VALID,1007.88,VALID,0,VALID,104,VALID,0,VALID,24.5691,VALID,106,VALID,0.432422,
2013-02-15, 00:33:04,VALID,1007.9,VALID,0,VALID,104,VALID,0.112112,VALID,24.5496,VALID,106,VALID,0.282813,
2013-02-15, 00:34:04,VALID,1007.9,VALID,0,VALID,104,VALID,0,VALID,24.5301,VALID,105,VALID,0.397656,
2013-02-15, 00:35:04,VALID,1007.92,VALID,0,VALID,104,VALID,0.112112,VALID,24.5106,VALID,106,VALID,0.407422,
2013-02-15, 00:36:04,VALID,1007.91,VALID,0,VALID,104,VALID,0.112112,VALID,24.4911,VALID,105,VALID,0.347656,
2013-02-15, 00:37:04,VALID,1007.9,VALID,0,VALID,104,VALID,0.112112,VALID,24.4717,VALID,105,VALID,0.387891,
2013-02-15, 00:38:04,VALID,1007.89,VALID,0,VALID,104,VALID,0.112112,VALID,24.4308,VALID,105,VALID,0.334766,
2013-02-15, 00:39:04,VALID,1007.9,VALID,0,VALID,104,VALID,0.112112,VALID,24.4327,VALID,105,VALID,0.0585938,
2013-02-15, 00:40:04,VALID,1007.88,VALID,0,VALID,104,VALID,0.112112,VALID,24.4113,VALID,106,VALID,0.101172,
2013-02-15, 00:41:04,VALID,1007.84,VALID,0,VALID,104,VALID,0.112112,VALID,24.3937,VALID,106,VALID,0.220703,
2013-02-15, 00:42:04,VALID,1007.82,VALID,0,VALID,104,VALID,0.112112,VALID,24.3742,VALID,106,VALID,0.268359,
2013-02-15, 00:43:04,VALID,1007.77,VALID,0,VALID,104,VALID,0.112112,VALID,24.3547,VALID,106,VALID,0.226563,
2013-02-15, 00:44:04,VALID,1007.74,VALID,0,VALID,104,VALID,0.112112,VALID,24.3352,VALID,105,VALID,0,
2013-02-15, 00:45:04,VALID,1007.72,VALID,0,VALID,104,VALID,0.112112,VALID,24.3547,VALID,105,VALID,0.108984,
2013-02-15, 00:46:04,VALID,1007.7,VALID,0,VALID,104,VALID,0.112112,VALID,24.3742,VALID,106,VALID,0,
2013-02-15, 00:47:04,VALID,1007.68,VALID,0,VALID,104,VALID,0.112112,VALID,24.3724,VALID,105,VALID,0.0195313,
2013-02-15, 00:48:04,VALID,1007.64,VALID,0,VALID,104,VALID,0,VALID,24.415,VALID,106,VALID,0,
2013-02-15, 00:49:04,VALID,1007.59,VALID,0,VALID,104,VALID,0,VALID,24.4132,VALID,105,VALID,0,
2013-02-15, 00:50:04,VALID,1007.58,VALID,0,VALID,104,VALID,0,VALID,24.4345,VALID,106,VALID,0,
2013-02-15, 00:51:04,VALID,1007.59,VALID,0,VALID,104,VALID,0,VALID,24.454,VALID,105,VALID,0,
2013-02-15, 00:52:04,VALID,1007.58,VALID,0,VALID,104,VALID,0,VALID,24.454,VALID,106,VALID,0,
2013-02-15, 00:53:04,VALID,1007.57,VALID,0,VALID,104,VALID,0,VALID,24.4735,VALID,105,VALID,0,
2013-02-15, 00:54:04,VALID,1007.58,VALID,0,VALID,104,VALID,0,VALID,24.454,VALID,105,VALID,0,
2013-02-15, 00:55:04,VALID,1007.57,VALID,0,VALID,104,VALID,0,VALID,24.454,VALID,105,VALID,0,
2013-02-15, 00:56:04,VALID,1007.59,VALID,0,VALID,104,VALID,0,VALID,24.4345,VALID,105,VALID,0,
2013-02-15, 00:57:04,VALID,1007.63,VALID,0,VALID,104,VALID,0,VALID,24.3761,VALID,105,VALID,0,
2013-02-15, 00:58:04,VALID,1007.65,VALID,0,VALID,104,VALID,0,VALID,24.3176,VALID,105,VALID,0,
2013-02-15, 00:59:04,VALID,1007.66,VALID,0,VALID,104,VALID,0,VALID,24.2786,VALID,106,VALID,0,
2013-02-15, 01:00:04,VALID,1007.68,VALID,0,VALID,104,VALID,0,VALID,24.2591,VALID,105,VALID,0,
2013-02-15, 01:01:04,VALID,1007.7,VALID,0,VALID,104,VALID,0,VALID,24.2396,VALID,76,VALID,0,
2013-02-15, 01:02:04,VALID,1007.7,VALID,0,VALID,104,VALID,0,VALID,24.2396,VALID,59,VALID,0,
2013-02-15, 01:03:04,VALID,1007.7,VALID,0,VALID,104,VALID,0,VALID,24.2396,VALID,56,VALID,0.517187,
2013-02-15, 01:04:04,VALID,1007.68,VALID,0,VALID,104,VALID,0,VALID,24.2573,VALID,38,VALID,0.892187,
2013-02-15, 01:05:04,VALID,1007.65,VALID,0,VALID,104,VALID,0,VALID,24.2786,VALID,41,VALID,0.270312,
2013-02-15, 01:06:04,VALID,1007.63,VALID,0,VALID,104,VALID,0,VALID,24.2786,VALID,41,VALID,0.288672,
2013-02-15, 01:07:04,VALID,1007.61,VALID,0,VALID,104,VALID,0,VALID,24.2591,VALID,40,VALID,0.432813,
2013-02-15, 01:08:04,VALID,1007.61,VALID,0,VALID,104,VALID,0,VALID,24.2378,VALID,27,VALID,0.571484,
2013-02-15, 01:09:04,VALID,1007.62,VALID,0,VALID,104,VALID,0,VALID,24.2591,VALID,27,VALID,0.833203,
2013-02-15, 01:10:04,VALID,1007.6,VALID,0,VALID,104,VALID,0,VALID,24.2573,VALID,29,VALID,1.00977,
2013-02-15, 01:11:04,VALID,1007.63,VALID,0,VALID,104,VALID,0,VALID,24.2786,VALID,35,VALID,1.05273,
2013-02-15, 01:12:04,VALID,1007.61,VALID,0,VALID,104,VALID,0,VALID,24.2981,VALID,34,VALID,1.01523,
2013-02-15, 01:13:04,VALID,1007.61,VALID,0,VALID,104,VALID,0.112112,VALID,24.2981,VALID,35,VALID,0.8625,
2013-02-15, 01:14:04,VALID,1007.6,VALID,0,VALID,104,VALID,0,VALID,24.2981,VALID,41,VALID,0.621094,
2013-02-15, 01:15:04,VALID,1007.56,VALID,0,VALID,104,VALID,0,VALID,24.2573,VALID,22,VALID,0.652734,
2013-02-15, 01:16:04,VALID,1007.55,VALID,0,VALID,104,VALID,0,VALID,24.2786,VALID,43,VALID,0.210938,
2013-02-15, 01:17:04,VALID,1007.55,VALID,0,VALID,104,VALID,0,VALID,24.2591,VALID,16,VALID,0.457031,
2013-02-15, 01:18:04,VALID,1007.53,VALID,0,VALID,104,VALID,0.112112,VALID,24.2768,VALID,327,VALID,0.497656,
2013-02-15, 01:19:04,VALID,1007.51,VALID,0,VALID,104,VALID,0.112112,VALID,24.2768,VALID,327,VALID,0.335547,
2013-02-15, 01:20:04,VALID,1007.49,VALID,0,VALID,104,VALID,0.112112,VALID,24.2573,VALID,327,VALID,0.009375,
2013-02-15, 01:21:04,VALID,1007.51,VALID,0,VALID,104,VALID,0.224224,VALID,24.2573,VALID,24,VALID,0.232812,
2013-02-15, 01:22:04,VALID,1007.51,VALID,0,VALID,104,VALID,0.112112,VALID,24.2573,VALID,23,VALID,0.0792969,
2013-02-15, 01:23:04,VALID,1007.51,VALID,0,VALID,104,VALID,0.112112,VALID,24.2378,VALID,23,VALID,0,
2013-02-15, 01:24:04,VALID,1007.51,VALID,0,VALID,104,VALID,0.112112,VALID,24.2183,VALID,24,VALID,0,
2013-02-15, 01:25:04,VALID,1007.5,VALID,0,VALID,104,VALID,0.112112,VALID,24.1988,VALID,24,VALID,0,
2013-02-15, 01:26:04,VALID,1007.51,VALID,0,VALID,104,VALID,0.112112,VALID,24.2183,VALID,24,VALID,0,
2013-02-15, 01:27:04,VALID,1007.48,VALID,0,VALID,104,VALID,0.112112,VALID,24.2183,VALID,24,VALID,0,
2013-02-15, 01:28:04,VALID,1007.47,VALID,0,VALID,104,VALID,0.112112,VALID,24.1775,VALID,24,VALID,0.0175781,
2013-02-15, 01:29:04,VALID,1007.47,VALID,0,VALID,104,VALID,0.112112,VALID,24.1988,VALID,24,VALID,0.1625,
2013-02-15, 01:30:04,VALID,1007.49,VALID,0,VALID,104,VALID,0.112112,VALID,24.1793,VALID,24,VALID,0.117969,
2013-02-15, 01:31:04,VALID,1007.49,VALID,0,VALID,104,VALID,0.112112,VALID,24.1599,VALID,24,VALID,0,
2013-02-15, 01:32:04,VALID,1007.5,VALID,0,VALID,104,VALID,0.112112,VALID,24.0996,VALID,23,VALID,0,
2013-02-15, 01:33:04,VALID,1007.48,VALID,0,VALID,104,VALID,0,VALID,24.1227,VALID,24,VALID,0,
2013-02-15, 01:34:04,VALID,1007.49,VALID,0,VALID,104,VALID,0,VALID,24.1617,VALID,24,VALID,0.136719,
2013-02-15, 01:35:04,VALID,1007.47,VALID,0,VALID,104,VALID,0,VALID,24.1422,VALID,24,VALID,0.0609375,
2013-02-15, 01:36:04,VALID,1007.47,VALID,0,VALID,104,VALID,0,VALID,24.1404,VALID,24,VALID,0.197266,
2013-02-15, 01:37:04,VALID,1007.47,VALID,0,VALID,104,VALID,0,VALID,24.1422,VALID,23,VALID,0.217578,
2013-02-15, 01:38:04,VALID,1007.45,VALID,0,VALID,104,VALID,0,VALID,24.1422,VALID,24,VALID,0.329297,
2013-02-15, 01:39:04,VALID,1007.47,VALID,0,VALID,104,VALID,0,VALID,24.1209,VALID,24,VALID,0.203516,
2013-02-15, 01:40:04,VALID,1007.47,VALID,0,VALID,104,VALID,0,VALID,24.1422,VALID,24,VALID,0.365234,
2013-02-15, 01:41:04,VALID,1007.45,VALID,0,VALID,104,VALID,0,VALID,24.1422,VALID,24,VALID,0.179688,
2013-02-15, 01:42:04,VALID,1007.49,VALID,0,VALID,104,VALID,0,VALID,24.1422,VALID,23,VALID,0.271094,
2013-02-15, 01:43:04,VALID,1007.5,VALID,0,VALID,104,VALID,0,VALID,24.1227,VALID,24,VALID,0.0371094,
2013-02-15, 01:44:04,VALID,1007.5,VALID,0,VALID,104,VALID,0,VALID,24.1032,VALID,24,VALID,0.317187,
2013-02-15, 01:45:04,VALID,1007.53,VALID,0,VALID,104,VALID,0,VALID,24.0819,VALID,24,VALID,0.428906,
2013-02-15, 01:46:04,VALID,1007.52,VALID,0,VALID,104,VALID,0,VALID,24.1032,VALID,24,VALID,0.458984,
2013-02-15, 01:47:04,VALID,1007.56,VALID,0,VALID,104,VALID,0,VALID,24.0624,VALID,16,VALID,0.241016,
2013-02-15, 01:48:04,VALID,1007.53,VALID,0,VALID,104,VALID,0,VALID,24.0837,VALID,16,VALID,0.164063,
2013-02-15, 01:49:04,VALID,1007.57,VALID,0,VALID,104,VALID,0,VALID,24.0643,VALID,14,VALID,0.4375,
2013-02-15, 01:50:04,VALID,1007.57,VALID,0,VALID,104,VALID,0,VALID,24.0235,VALID,14,VALID,0.053125,
2013-02-15, 01:51:04,VALID,1007.53,VALID,0,VALID,104,VALID,0,VALID,24.0643,VALID,35,VALID,0.705859,
2013-02-15, 01:52:04,VALID,1007.55,VALID,0,VALID,104,VALID,0,VALID,24.0643,VALID,37,VALID,0.505469,
2013-02-15, 01:53:04,VALID,1007.52,VALID,0,VALID,104,VALID,0,VALID,24.0624,VALID,37,VALID,0.283203,
2013-02-15, 01:54:04,VALID,1007.49,VALID,0,VALID,104,VALID,0,VALID,24.0837,VALID,37,VALID,0.105078,
2013-02-15, 01:55:04,VALID,1007.51,VALID,0,VALID,104,VALID,0,VALID,24.0624,VALID,37,VALID,0.0742188,
2013-02-15, 01:56:04,VALID,1007.5,VALID,0,VALID,104,VALID,0,VALID,24.0643,VALID,37,VALID,0,
2013-02-15, 01:57:04,VALID,1007.51,VALID,0,VALID,104,VALID,0,VALID,24.0837,VALID,37,VALID,0.00117188,
2013-02-15, 01:58:04,VALID,1007.52,VALID,0,VALID,104,VALID,0,VALID,24.0837,VALID,37,VALID,0,
2013-02-15, 01:59:04,VALID,1007.52,VALID,0,VALID,104,VALID,0,VALID,24.0643,VALID,346,VALID,0.603516,
2013-02-15, 02:00:04,VALID,1007.51,VALID,0,VALID,104,VALID,0,VALID,24.0837,VALID,340,VALID,0.133594,
2013-02-15, 02:01:04,VALID,1007.53,VALID,0,VALID,104,VALID,0,VALID,24.0624,VALID,340,VALID,0.352734,
2013-02-15, 02:02:04,VALID,1007.54,VALID,0,VALID,104,VALID,0,VALID,24.0837,VALID,354,VALID,0.675,
2013-02-15, 02:03:04,VALID,1007.54,VALID,0,VALID,104,VALID,0,VALID,24.0643,VALID,355,VALID,0.429297,
2013-02-15, 02:04:04,VALID,1007.55,VALID,0,VALID,104,VALID,0,VALID,24.0837,VALID,6,VALID,0.467578,
2013-02-15, 02:05:04,VALID,1007.52,VALID,0,VALID,104,VALID,0,VALID,24.0837,VALID,9,VALID,0.523438,
2013-02-15, 02:06:04,VALID,1007.52,VALID,0,VALID,104,VALID,0,VALID,24.0643,VALID,9,VALID,0.191406,
2013-02-15, 02:07:05,VALID,1007.52,VALID,0,VALID,104,VALID,0,VALID,24.1032,VALID,10,VALID,0.590625,
2013-02-15, 02:08:05,VALID,1007.5,VALID,0,VALID,104,VALID,0,VALID,24.0837,VALID,12,VALID,0.3375,
2013-02-15, 02:09:05,VALID,1007.52,VALID,0,VALID,104,VALID,0,VALID,24.0837,VALID,12,VALID,0.515625,
2013-02-15, 02:10:05,VALID,1007.51,VALID,0,VALID,104,VALID,0,VALID,24.0837,VALID,24,VALID,0.582812,
2013-02-15, 02:11:05,VALID,1007.51,VALID,0,VALID,104,VALID,0,VALID,24.0643,VALID,45,VALID,0.487109,
2013-02-15, 02:12:05,VALID,1007.53,VALID,0,VALID,104,VALID,0,VALID,24.0837,VALID,45,VALID,0.425781,
2013-02-15, 02:13:05,VALID,1007.52,VALID,0,VALID,104,VALID,0,VALID,24.0643,VALID,45,VALID,0.390625,
2013-02-15, 02:14:05,VALID,1007.52,VALID,0,VALID,104,VALID,0,VALID,24.0624,VALID,45,VALID,0.296875,
2013-02-15, 02:15:05,VALID,1007.53,VALID,0,VALID,104,VALID,0,VALID,24.0837,VALID,45,VALID,0.432031,
2013-02-15, 02:16:05,VALID,1007.56,VALID,0,VALID,104,VALID,0,VALID,24.0643,VALID,45,VALID,0.331641,
2013-02-15, 02:17:05,VALID,1007.54,VALID,0,VALID,104,VALID,0,VALID,24.0643,VALID,45,VALID,0.219531,
2013-02-15, 02:18:05,VALID,1007.56,VALID,0,VALID,104,VALID,0,VALID,24.0429,VALID,45,VALID,0.387891,
2013-02-15, 02:19:05,VALID,1007.61,VALID,0,VALID,104,VALID,0,VALID,24.0253,VALID,45,VALID,0.413281,
2013-02-15, 02:20:05,VALID,1007.6,VALID,0,VALID,104,VALID,0,VALID,24.0448,VALID,45,VALID,0.637891,
2013-02-15, 02:21:05,VALID,1007.61,VALID,0,VALID,104,VALID,0,VALID,24.0253,VALID,45,VALID,0.423438,
2013-02-15, 02:22:05,VALID,1007.62,VALID,0,VALID,104,VALID,0,VALID,24.004,VALID,45,VALID,0.325,
2013-02-15, 02:23:05,VALID,1007.6,VALID,0,VALID,104,VALID,0,VALID,24.0058,VALID,72,VALID,0.489453,
2013-02-15, 02:24:05,VALID,1007.57,VALID,0,VALID,104,VALID,0,VALID,23.965,VALID,72,VALID,0.594141,
2013-02-15, 02:25:05,VALID,1007.57,VALID,0,VALID,104,VALID,0,VALID,23.9863,VALID,72,VALID,0.49375,
2013-02-15, 02:26:05,VALID,1007.55,VALID,0,VALID,104,VALID,0,VALID,24.0058,VALID,70,VALID,0.197656,
2013-02-15, 02:27:05,VALID,1007.56,VALID,0,VALID,104,VALID,0,VALID,23.9845,VALID,70,VALID,0.345703,
2013-02-15, 02:28:05,VALID,1007.56,VALID,0,VALID,104,VALID,0,VALID,23.9455,VALID,59,VALID,0.333594,
2013-02-15, 02:29:05,VALID,1007.58,VALID,0,VALID,104,VALID,0,VALID,23.9668,VALID,53,VALID,0.479688,
2013-02-15, 02:30:05,VALID,1007.55,VALID,0,VALID,104,VALID,0,VALID,23.9881,VALID,52,VALID,0.021875,
2013-02-15, 02:31:05,VALID,1007.56,VALID,0,VALID,104,VALID,0,VALID,23.9455,VALID,52,VALID,0,
2013-02-15, 02:32:05,VALID,1007.56,VALID,0,VALID,104,VALID,0,VALID,23.9668,VALID,52,VALID,0.175781,
2013-02-15, 02:33:05,VALID,1007.57,VALID,0,VALID,104,VALID,0,VALID,23.9473,VALID,52,VALID,0.385938,
2013-02-15, 02:34:05,VALID,1007.55,VALID,0,VALID,104,VALID,0,VALID,23.9473,VALID,52,VALID,0.434766,
2013-02-15, 02:35:05,VALID,1007.53,VALID,0,VALID,104,VALID,0,VALID,23.9278,VALID,52,VALID,0.175391,
2013-02-15, 02:36:05,VALID,1007.52,VALID,0,VALID,104,VALID,0,VALID,23.9473,VALID,52,VALID,0.196094,
2013-02-15, 02:37:05,VALID,1007.55,VALID,0,VALID,104,VALID,0,VALID,23.9278,VALID,52,VALID,0.241406,
2013-02-15, 02:38:05,VALID,1007.55,VALID,0,VALID,104,VALID,0,VALID,23.9278,VALID,41,VALID,0.366797,
2013-02-15, 02:39:05,VALID,1007.48,VALID,0,VALID,104,VALID,0,VALID,23.9278,VALID,41,VALID,0.154687,
2013-02-15, 02:40:05,VALID,1007.45,VALID,0,VALID,104,VALID,0,VALID,23.9278,VALID,41,VALID,0.208594,
2013-02-15, 02:41:05,VALID,1007.44,VALID,0,VALID,104,VALID,0,VALID,23.9473,VALID,41,VALID,0.117969,
2013-02-15, 02:42:05,VALID,1007.44,VALID,0,VALID,104,VALID,0,VALID,23.9473,VALID,41,VALID,0.214844,
2013-02-15, 02:43:05,VALID,1007.45,VALID,0,VALID,104,VALID,0,VALID,23.9473,VALID,41,VALID,0.289453,
2013-02-15, 02:44:05,VALID,1007.48,VALID,0,VALID,104,VALID,0,VALID,23.9473,VALID,41,VALID,0.23125,
2013-02-15, 02:45:05,VALID,1007.44,VALID,0,VALID,104,VALID,0,VALID,23.9473,VALID,41,VALID,0.0703125,
2013-02-15, 02:46:05,VALID,1007.45,VALID,0,VALID,104,VALID,0,VALID,23.9473,VALID,41,VALID,0,
2013-02-15, 02:47:05,VALID,1007.43,VALID,0,VALID,104,VALID,0,VALID,23.9473,VALID,41,VALID,0,
2013-02-15, 02:48:05,VALID,1007.42,VALID,0,VALID,104,VALID,0.112112,VALID,23.9455,VALID,41,VALID,0,
2013-02-15, 02:49:05,VALID,1007.4,VALID,0,VALID,104,VALID,0.112112,VALID,23.9845,VALID,41,VALID,0,
2013-02-15, 02:50:05,VALID,1007.39,VALID,0,VALID,104,VALID,0.112112,VALID,23.965,VALID,41,VALID,0.0945313,
2013-02-15, 02:51:05,VALID,1007.39,VALID,0,VALID,104,VALID,0.112112,VALID,23.9455,VALID,41,VALID,0.254687,
2013-02-15, 02:52:05,VALID,1007.37,VALID,0,VALID,104,VALID,0.112112,VALID,23.926,VALID,41,VALID,0,
2013-02-15, 02:53:05,VALID,1007.37,VALID,0,VALID,104,VALID,0.112112,VALID,23.926,VALID,41,VALID,0,
2013-02-15, 02:54:05,VALID,1007.34,VALID,0,VALID,104,VALID,0.112112,VALID,23.9473,VALID,41,VALID,0.135937,
2013-02-15, 02:55:05,VALID,1007.36,VALID,0,VALID,104,VALID,0.112112,VALID,23.926,VALID,41,VALID,0.161328,
2013-02-15, 02:56:05,VALID,1007.34,VALID,0,VALID,104,VALID,0.112112,VALID,23.9047,VALID,41,VALID,0.348828,
2013-02-15, 02:57:05,VALID,1007.34,VALID,0,VALID,104,VALID,0.112112,VALID,23.9065,VALID,41,VALID,0.301562,
2013-02-15, 02:58:05,VALID,1007.33,VALID,0,VALID,104,VALID,0.112112,VALID,23.9065,VALID,41,VALID,0.146484,
2013-02-15, 02:59:05,VALID,1007.33,VALID,0,VALID,104,VALID,0.112112,VALID,23.8871,VALID,41,VALID,0.2625,
2013-02-15, 03:00:05,VALID,1007.31,VALID,0,VALID,104,VALID,0.112112,VALID,23.8871,VALID,41,VALID,0,
2013-02-15, 03:01:05,VALID,1007.29,VALID,0,VALID,104,VALID,0,VALID,23.8676,VALID,41,VALID,0.0253906,
2013-02-15, 03:02:05,VALID,1007.25,VALID,0,VALID,104,VALID,0,VALID,23.8676,VALID,41,VALID,0.219531,
2013-02-15, 03:03:05,VALID,1007.28,VALID,0,VALID,104,VALID,0,VALID,23.8694,VALID,41,VALID,0.495313,
2013-02-15, 03:04:05,VALID,1007.24,VALID,0,VALID,104,VALID,0,VALID,23.8694,VALID,41,VALID,0.279297,
2013-02-15, 03:05:05,VALID,1007.3,VALID,0,VALID,104,VALID,0,VALID,23.8499,VALID,41,VALID,0,
2013-02-15, 03:06:05,VALID,1007.27,VALID,0,VALID,104,VALID,0,VALID,23.8304,VALID,41,VALID,0,
2013-02-15, 03:07:05,VALID,1007.26,VALID,0,VALID,104,VALID,0,VALID,23.8286,VALID,41,VALID,0,
2013-02-15, 03:08:05,VALID,1007.25,VALID,0,VALID,104,VALID,0,VALID,23.8091,VALID,41,VALID,0,
2013-02-15, 03:09:05,VALID,1007.24,VALID,0,VALID,104,VALID,0,VALID,23.8304,VALID,41,VALID,0,
2013-02-15, 03:10:05,VALID,1007.23,VALID,0,VALID,104,VALID,0,VALID,23.8304,VALID,41,VALID,0,
2013-02-15, 03:11:05,VALID,1007.26,VALID,0,VALID,104,VALID,0,VALID,23.8304,VALID,41,VALID,0,
2013-02-15, 03:12:05,VALID,1007.27,VALID,0,VALID,104,VALID,0,VALID,23.8304,VALID,41,VALID,0,
2013-02-15, 03:13:05,VALID,1007.28,VALID,0,VALID,104,VALID,0,VALID,23.8304,VALID,41,VALID,0,
2013-02-15, 03:14:05,VALID,1007.28,VALID,0,VALID,104,VALID,0,VALID,23.8499,VALID,41,VALID,0.35,
2013-02-15, 03:15:05,VALID,1007.29,VALID,0,VALID,104,VALID,0,VALID,23.8499,VALID,41,VALID,0.396875,
2013-02-15, 03:16:05,VALID,1007.32,VALID,0,VALID,104,VALID,0,VALID,23.8304,VALID,41,VALID,0.517969,
2013-02-15, 03:17:05,VALID,1007.37,VALID,0,VALID,104,VALID,0,VALID,23.8499,VALID,41,VALID,0.583594,
2013-02-15, 03:18:05,VALID,1007.39,VALID,0,VALID,104,VALID,0.112112,VALID,23.8481,VALID,41,VALID,0.425,
2013-02-15, 03:19:05,VALID,1007.39,VALID,0,VALID,104,VALID,0.112112,VALID,23.8481,VALID,41,VALID,0.571094,
2013-02-15, 03:20:05,VALID,1007.39,VALID,0,VALID,104,VALID,0.112112,VALID,23.8676,VALID,49,VALID,0.753125,
2013-02-15, 03:21:05,VALID,1007.38,VALID,0,VALID,104,VALID,0.112112,VALID,23.8676,VALID,48,VALID,0.835547,
2013-02-15, 03:22:05,VALID,1007.38,VALID,0,VALID,104,VALID,0.112112,VALID,23.8481,VALID,49,VALID,0.421484,
2013-02-15, 03:23:05,VALID,1007.37,VALID,0,VALID,104,VALID,0.112112,VALID,23.8481,VALID,49,VALID,0.392969,
2013-02-15, 03:24:05,VALID,1007.39,VALID,0,VALID,104,VALID,0.112112,VALID,23.8481,VALID,48,VALID,0.747656,
2013-02-15, 03:25:05,VALID,1007.39,VALID,0,VALID,104,VALID,0.112112,VALID,23.8481,VALID,55,VALID,0.608203,
2013-02-15, 03:26:05,VALID,1007.39,VALID,0,VALID,104,VALID,0.112112,VALID,23.8286,VALID,58,VALID,0.319922,
2013-02-15, 03:27:05,VALID,1007.38,VALID,0,VALID,104,VALID,0.112112,VALID,23.8286,VALID,58,VALID,0.114453,
2013-02-15, 03:28:05,VALID,1007.44,VALID,0,VALID,104,VALID,0.112112,VALID,23.8481,VALID,58,VALID,0.536719,
2013-02-15, 03:29:05,VALID,1007.48,VALID,0,VALID,104,VALID,0.112112,VALID,23.8268,VALID,94,VALID,0.7375,
2013-02-15, 03:30:05,VALID,1007.5,VALID,0,VALID,104,VALID,0.112112,VALID,23.8481,VALID,100,VALID,0.519922,
2013-02-15, 03:31:05,VALID,1007.53,VALID,0,VALID,104,VALID,0.112112,VALID,23.8481,VALID,96,VALID,0.595312,
2013-02-15, 03:32:05,VALID,1007.54,VALID,0,VALID,104,VALID,0.112112,VALID,23.8481,VALID,113,VALID,0.925,
2013-02-15, 03:33:05,VALID,1007.58,VALID,0,VALID,104,VALID,0,VALID,23.8694,VALID,112,VALID,0.533594,
2013-02-15, 03:34:05,VALID,1007.57,VALID,0,VALID,104,VALID,0,VALID,23.8694,VALID,117,VALID,0.640625,
2013-02-15, 03:35:05,VALID,1007.59,VALID,0,VALID,104,VALID,0,VALID,23.8907,VALID,129,VALID,0.446875,
2013-02-15, 03:36:05,VALID,1007.59,VALID,0,VALID,104,VALID,0,VALID,23.8694,VALID,128,VALID,0.380859,
2013-02-15, 03:37:05,VALID,1007.6,VALID,0,VALID,104,VALID,0,VALID,23.8694,VALID,143,VALID,0.849219,
2013-02-15, 03:38:05,VALID,1007.57,VALID,0,VALID,104,VALID,0,VALID,23.8499,VALID,141,VALID,0.572656,
2013-02-15, 03:39:05,VALID,1007.56,VALID,0,VALID,104,VALID,0,VALID,23.8712,VALID,120,VALID,1.15547,
2013-02-15, 03:40:05,VALID,1007.55,VALID,0,VALID,104,VALID,0,VALID,23.8499,VALID,112,VALID,0.585156,
2013-02-15, 03:41:05,VALID,1007.56,VALID,0,VALID,104,VALID,0,VALID,23.8694,VALID,101,VALID,0.830078,
2013-02-15, 03:42:05,VALID,1007.56,VALID,0,VALID,104,VALID,0,VALID,23.8694,VALID,92,VALID,1.0207,
2013-02-15, 03:43:05,VALID,1007.6,VALID,0,VALID,104,VALID,0,VALID,23.8499,VALID,87,VALID,0.809766,
2013-02-15, 03:44:05,VALID,1007.63,VALID,0,VALID,104,VALID,0,VALID,23.8499,VALID,89,VALID,1.03945,
2013-02-15, 03:45:05,VALID,1007.66,VALID,0,VALID,104,VALID,0,VALID,23.8499,VALID,73,VALID,0.645703,
2013-02-15, 03:46:05,VALID,1007.66,VALID,0,VALID,104,VALID,0,VALID,23.8499,VALID,73,VALID,0.561719,
2013-02-15, 03:47:05,VALID,1007.66,VALID,0,VALID,104,VALID,0,VALID,23.8907,VALID,58,VALID,1.10703,
2013-02-15, 03:48:05,VALID,1007.68,VALID,0,VALID,104,VALID,0,VALID,23.8499,VALID,74,VALID,0.995313,
2013-02-15, 03:49:05,VALID,1007.67,VALID,0,VALID,104,VALID,0,VALID,23.8694,VALID,68,VALID,0.998438,
2013-02-15, 03:50:05,VALID,1007.65,VALID,0,VALID,104,VALID,0,VALID,23.8694,VALID,87,VALID,1.18047,
2013-02-15, 03:51:05,VALID,1007.67,VALID,0,VALID,104,VALID,0,VALID,23.8499,VALID,85,VALID,1.23242,
2013-02-15, 03:52:05,VALID,1007.64,VALID,0,VALID,104,VALID,0,VALID,23.8694,VALID,83,VALID,1.28828,
2013-02-15, 03:53:05,VALID,1007.65,VALID,0,VALID,104,VALID,0,VALID,23.8694,VALID,66,VALID,1.1793,